[Date Prev][Date Next][Thread Prev][Thread Next] - [Date Index][Thread Index][Author Index]

2 Line ISS keps 5-14



ISS
1 25544U 98067A   01134.15942130  .00041581  00000-0  51066-3 0  9679
2 25544  51.5707 260.2933 0017531  45.1937 321.8320 15.59686946141765

----
Via the sarex mailing list at AMSAT.ORG courtesy of AMSAT-NA.
To unsubscribe, send "unsubscribe sarex" to Majordomo@amsat.org



AMSAT Top AMSAT Home